timestamp,surface_pressure_avg,surface_temp_avg,battery_voltage,lat,long
2021-05-14 00:09:01+00:00,348.7463,4.9,13.21,47.84626,-54.09684
2021-05-14 00:19:00+00:00,349.8729,4.8,12.89,47.84626,-54.09684
2021-05-14 00:29:00+00:00,353.5229,4.6,12.89,47.84626,-54.09684
2021-05-14 00:39:00+00:00,356.5813,4.59,12.89,47.84626,-54.09684
2021-05-14 00:49:00+00:00,357.4346,4.59,12.89,47.84626,-54.09684
2021-05-14 00:59:00+00:00,357.3663,4.6,12.89,47.84626,-54.09684
2021-05-14 01:09:00+00:00,357.1829,4.6,12.89,47.84626,-54.09684
2021-05-14 01:19:01+00:00,356.1813,4.6,12.65,47.84626,-54.09684
2021-05-14 01:29:01+00:00,354.8846,4.6,12.65,47.84626,-54.09684
2021-05-14 01:39:01+00:00,353.7097,4.6,12.65,47.84626,-54.09684
2021-05-14 01:49:01+00:00,352.0095,4.6,12.65,47.84626,-54.09684
2021-05-14 01:59:01+00:00,349.2346,4.6,12.65,47.84626,-54.09684
2021-05-14 02:09:01+00:00,345.1829,4.6,12.65,47.84626,-54.09684
2021-05-14 02:19:00+00:00,343.1896,4.6,12.65,47.84626,-54.09684
2021-05-14 02:29:00+00:00,342.6396,4.6,12.65,47.84626,-54.09684
2021-05-14 02:39:00+00:00,338.7463,4.6,12.65,47.84626,-54.09684
2021-05-14 02:49:00+00:00,332.7529,4.6,12.65,47.84626,-54.09684
2021-05-14 02:59:00+00:00,327.0563,4.6,12.65,47.84626,-54.09684
2021-05-14 03:09:00+00:00,322.1347,4.6,12.65,47.84626,-54.09684
2021-05-14 03:19:00+00:00,317.858,4.6,12.65,47.84626,-54.09684
2021-05-14 03:29:00+00:00,311.7764,4.6,12.65,47.84626,-54.09684
2021-05-14 03:39:00+00:00,302.9213,4.6,12.65,47.84626,-54.09684
2021-05-14 03:49:00+00:00,296.0214,4.6,12.65,47.84626,-54.09684
2021-05-14 03:59:00+00:00,289.1164,4.63,12.65,47.84626,-54.09684
2021-05-14 04:09:00+00:00,279.6464,4.69,12.65,47.84626,-54.09684
2021-05-14 04:19:00+00:00,270.1731,4.67,12.65,47.84626,-54.09684
2021-05-14 04:29:00+00:00,263.9714,4.69,12.65,47.84626,-54.09684
2021-05-14 04:39:00+00:00,258.7231,4.7,12.65,47.84626,-54.09684
2021-05-14 04:49:00+00:00,251.7364,4.7,12.65,47.84626,-54.09684
2021-05-14 04:59:00+00:00,244.1614,4.7,12.65,47.84626,-54.09684
2021-05-14 05:09:00+00:00,235.5881,4.7,12.65,47.84626,-54.09684
2021-05-14 05:19:00+00:00,227.6381,4.7,12.65,47.84626,-54.09684
2021-05-14 05:29:00+00:00,220.8181,4.7,12.65,47.84626,-54.09684
2021-05-14 05:39:00+00:00,213.9931,4.7,12.65,47.84626,-54.09684
2021-05-14 05:49:00+00:00,207.8281,4.7,12.65,47.84626,-54.09684
2021-05-14 05:59:00+00:00,203.2531,4.7,12.65,47.84626,-54.09684
2021-05-14 06:09:00+00:00,198.7198,4.7,12.65,47.84626,-54.09684
2021-05-14 06:19:01+00:00,193.8365,4.77,12.57,47.84626,-54.09684
2021-05-14 06:29:01+00:00,189.6431,4.8,12.57,47.84626,-54.09684
2021-05-14 06:39:01+00:00,189.1131,4.87,12.57,47.84626,-54.09684
2021-05-14 06:49:01+00:00,186.7181,4.9,12.57,47.84626,-54.09684
2021-05-14 06:59:01+00:00,183.9298,4.9,12.57,47.84626,-54.09684
2021-05-14 07:09:01+00:00,186.9965,4.9,12.57,47.84626,-54.09684
2021-05-14 07:19:00+00:00,189.6198,4.9,12.57,47.84626,-54.09684
2021-05-14 07:29:00+00:00,190.9514,4.9,12.57,47.84626,-54.09684
2021-05-14 07:39:00+00:00,194.5048,4.9,12.57,47.84626,-54.09684
2021-05-14 07:49:00+00:00,197.5931,4.9,12.57,47.84626,-54.09684
2021-05-14 07:59:00+00:00,199.8948,4.9,12.57,47.84626,-54.09684
2021-05-14 08:09:00+00:00,205.8715,4.9,12.57,47.84626,-54.09684
2021-05-14 08:19:00+00:00,211.5265,4.9,12.57,47.84626,-54.09684
2021-05-14 08:29:00+00:00,214.6664,4.9,12.57,47.84626,-54.09684
2021-05-14 08:39:00+00:00,217.9014,4.87,12.57,47.84626,-54.09684
2021-05-14 08:49:00+00:00,223.8931,4.84,12.57,47.84626,-54.09684
2021-05-14 08:59:00+00:00,227.9864,4.8,12.57,47.84626,-54.09684
2021-05-14 09:09:00+00:00,229.6514,4.8,12.57,47.84626,-54.09684
2021-05-14 09:19:01+00:00,233.343,4.8,12.57,47.84626,-54.09684
2021-05-14 09:29:01+00:00,237.7897,4.8,12.57,47.84626,-54.09684
2021-05-14 09:39:01+00:00,242.1365,4.77,12.57,47.84626,-54.09684
2021-05-14 09:49:01+00:00,244.8914,4.7,12.57,47.84626,-54.09684
2021-05-14 09:59:01+00:00,248.8314,4.7,12.57,47.84626,-54.09684
2021-05-14 10:09:01+00:00,253.9148,4.6,12.57,47.84626,-54.09684
2021-05-14 10:19:01+00:00,258.8964,4.6,13.05,47.84626,-54.09684
2021-05-14 10:29:01+00:00,263.3781,4.5,13.05,47.84626,-54.09684
2021-05-14 10:39:01+00:00,268.2481,4.4,13.05,47.84626,-54.09684
2021-05-14 10:49:01+00:00,271.4797,4.3,13.05,47.84626,-54.09684
2021-05-14 10:59:01+00:00,274.8914,4.27,13.05,47.84626,-54.09684
2021-05-14 11:09:01+00:00,280.738,4.2,13.05,47.84626,-54.09684
2021-05-14 11:19:01+00:00,287.598,4.2,13.29,47.84626,-54.09684
2021-05-14 11:29:01+00:00,292.873,4.2,13.29,47.84626,-54.09684
2021-05-14 11:39:01+00:00,298.0664,4.26,13.29,47.84626,-54.09684
2021-05-14 11:49:01+00:00,302.9398,4.29,13.29,47.84626,-54.09684
2021-05-14 11:59:01+00:00,305.9363,4.29,13.29,47.84626,-54.09684
2021-05-14 12:09:01+00:00,311.6097,4.3,13.29,47.84626,-54.09684
2021-05-14 12:19:01+00:00,316.7164,4.3,13.6,47.84626,-54.09684
2021-05-14 12:29:01+00:00,319.4263,4.3,13.6,47.84626,-54.09684
2021-05-14 12:39:01+00:00,319.888,4.33,13.6,47.84626,-54.09684
2021-05-14 12:49:01+00:00,322.9846,4.4,13.6,47.84626,-54.09684
2021-05-14 12:59:01+00:00,325.6331,4.5,13.6,47.84626,-54.09684
2021-05-14 13:09:01+00:00,324.783,4.5,13.6,47.84626,-54.09684
2021-05-14 13:19:01+00:00,321.978,4.4,14.32,47.84626,-54.09684
2021-05-14 13:29:01+00:00,323.033,4.4,14.32,47.84626,-54.09684
2021-05-14 13:39:01+00:00,324.953,4.36,14.32,47.84626,-54.09684
2021-05-14 13:49:01+00:00,323.2847,4.3,14.32,47.84626,-54.09684
2021-05-14 13:59:01+00:00,320.0714,4.36,14.32,47.84626,-54.09684
2021-05-14 14:09:01+00:00,319.7013,4.4,14.32,47.84626,-54.09684
2021-05-14 14:19:01+00:00,319.5163,4.4,14.32,47.84626,-54.09684
2021-05-14 14:29:01+00:00,314.5813,4.4,14.32,47.84626,-54.09684
2021-05-14 14:39:01+00:00,309.7314,4.45,14.32,47.84626,-54.09684
2021-05-14 14:49:01+00:00,307.0063,4.5,14.32,47.84626,-54.09684
2021-05-14 14:59:01+00:00,303.5213,4.5,14.32,47.84626,-54.09684
2021-05-14 15:09:01+00:00,299.473,4.5,14.32,47.84626,-54.09684
2021-05-14 15:19:01+00:00,296.4114,4.49,14.24,47.84626,-54.09684
2021-05-14 15:29:01+00:00,292.9847,4.45,14.24,47.84626,-54.09684
2021-05-14 15:39:01+00:00,287.348,4.43,14.24,47.84626,-54.09684
2021-05-14 15:49:01+00:00,282.5197,4.4,14.24,47.84626,-54.09684
2021-05-14 15:59:01+00:00,278.7264,4.36,14.24,47.84626,-54.09684
2021-05-14 16:09:01+00:00,273.0414,4.32,14.24,47.84626,-54.09684
2021-05-14 16:19:01+00:00,267.6064,4.36,14.24,47.84626,-54.09684
2021-05-14 16:29:01+00:00,260.8214,4.3,14.24,47.84626,-54.09684
2021-05-14 16:39:01+00:00,253.5397,4.24,14.24,47.84626,-54.09684
2021-05-14 16:49:01+00:00,246.6581,4.2,14.24,47.84626,-54.09684
2021-05-14 16:59:01+00:00,242.5314,4.2,14.24,47.84626,-54.09684
2021-05-14 17:09:01+00:00,236.4281,4.23,14.24,47.84626,-54.09684
2021-05-14 17:19:01+00:00,227.2697,4.28,14.16,47.84626,-54.09684
2021-05-14 17:29:01+00:00,219.3281,4.3,14.16,47.84626,-54.09684
2021-05-14 17:39:01+00:00,218.0881,4.3,14.16,47.84626,-54.09684
2021-05-14 17:49:01+00:00,214.0664,4.3,14.16,47.84626,-54.09684
2021-05-14 17:59:01+00:00,206.5481,4.46,14.16,47.84626,-54.09684
2021-05-14 18:09:01+00:00,202.4431,4.5,14.16,47.84626,-54.09684
2021-05-14 18:19:01+00:00,201.2881,4.5,14.08,47.84626,-54.09684
2021-05-14 18:29:01+00:00,196.8298,4.5,14.08,47.84626,-54.09684
2021-05-14 18:39:01+00:00,192.7681,4.5,14.08,47.84626,-54.09684
2021-05-14 18:49:01+00:00,192.7215,4.5,14.08,47.84626,-54.09684
2021-05-14 18:59:01+00:00,190.6798,4.5,14.08,47.84626,-54.09684
2021-05-14 19:09:01+00:00,188.6448,4.5,14.08,47.84626,-54.09684
2021-05-14 19:19:01+00:00,192.6381,4.5,13.76,47.84626,-54.09684
2021-05-14 19:29:01+00:00,195.8764,4.5,13.76,47.84626,-54.09684
2021-05-14 19:39:01+00:00,197.1848,4.44,13.76,47.84626,-54.09684
2021-05-14 19:49:01+00:00,201.6248,4.4,13.76,47.84626,-54.09684
2021-05-14 19:59:01+00:00,206.3548,4.4,13.76,47.84626,-54.09684
2021-05-14 20:09:01+00:00,207.8732,4.4,13.76,47.84626,-54.09684
2021-05-14 20:19:01+00:00,211.2515,4.4,13.76,47.84626,-54.09684
2021-05-14 20:29:01+00:00,216.6048,4.4,13.76,47.84626,-54.09684
2021-05-14 20:39:01+00:00,221.5381,4.43,13.76,47.84626,-54.09684
2021-05-14 20:49:01+00:00,225.3598,4.48,13.76,47.84626,-54.09684
2021-05-14 20:59:01+00:00,231.7231,4.4,13.76,47.84626,-54.09684
2021-05-14 21:09:01+00:00,239.2631,4.39,13.76,47.84626,-54.09684
2021-05-14 21:19:00+00:00,243.7998,4.36,13.68,47.84626,-54.09684
2021-05-14 21:29:00+00:00,246.4598,4.4,13.68,47.84626,-54.09684
2021-05-14 21:39:00+00:00,251.0914,4.4,13.68,47.84626,-54.09684
2021-05-14 21:49:00+00:00,254.9364,4.4,13.68,47.84626,-54.09684
2021-05-14 21:59:00+00:00,258.3598,4.43,13.68,47.84626,-54.09684
2021-05-14 22:09:00+00:00,262.6497,4.5,13.68,47.84626,-54.09684
2021-05-14 22:19:01+00:00,268.3248,4.5,13.37,47.84626,-54.09684
2021-05-14 22:29:01+00:00,272.363,4.5,13.37,47.84626,-54.09684
2021-05-14 22:39:01+00:00,277.8147,4.5,13.37,47.84626,-54.09684
2021-05-14 22:49:01+00:00,284.5947,4.5,13.37,47.84626,-54.09684
2021-05-14 22:59:01+00:00,289.3247,4.5,13.37,47.84626,-54.09684
2021-05-14 23:09:01+00:00,292.0863,4.5,13.37,47.84626,-54.09684
2021-05-14 23:19:01+00:00,299.3347,4.56,12.97,47.84626,-54.09684
2021-05-14 23:29:01+00:00,305.1063,4.58,12.97,47.84626,-54.09684
2021-05-14 23:39:01+00:00,308.783,4.6,12.97,47.84626,-54.09684
2021-05-14 23:49:01+00:00,314.2614,4.7,12.97,47.84626,-54.09684
2021-05-14 23:59:01+00:00,322.4047,4.7,12.97,47.84626,-54.09684
